Theta_e
302 291 289 293 294 294 292 289 287 290 295 292 292 293 297 297 296 296 296 296 298 299 303 308 316 321 323 323 325 326 327 329 328 327 325 324 324 326 327 327 327 327 326 325
296 289 293 297 297 294 292 290 288 292 294 292 291 291 294 295 295 297 298 298 297 299 301 302 305 315 318 322 324 325 327 328 328 328 327 326 325 325 326 328 328 327 326 326
291 294 298 295 292 290 290 288 287 289 292 291 288 285 289 293 295 296 296 298 299 299 301 304 302 304 315 317 321 324 326 327 328 329 327 326 324 324 323 325 326 326 327 325
292 296 295 293 290 291 286 293 293 292 288 283 287 278 285 290 292 291 293 293 297 300 301 302 303 302 303 314 319 320 324 326 327 329 327 325 325 323 325 326 327 327 325 326
290 293 292 291 292 294 290 294 292 291 286 285 282 281 283 288 288 291 293 293 295 297 298 299 300 302 303 303 304 314 318 320 324 327 328 326 325 326 327 326 325 325 326 325
292 296 295 293 295 295 296 293 291 289 286 277 283 282 280 285 288 289 291 293 295 296 297 299 299 299 300 301 303 305 307 312 319 323 326 326 325 325 324 324 324 324 325 324
291 292 295 297 292 294 293 288 278 275 276 276 281 282 283 288 291 290 292 293 295 295 297 298 299 298 298 298 299 301 303 306 308 311 318 322 324 324 324 324 323 323 323 322
280 277 291 296 293 290 290 287 280 273 275 276 281 278 283 289 291 291 291 292 294 295 296 297 297 297 298 298 298 299 300 302 303 304 306 308 313 321 323 324 323 323 322 324
281 282 291 294 295 294 289 286 289 283 272 275 279 281 286 288 290 289 291 292 292 295 296 296 297 297 298 299 299 300 301 302 302 303 303 304 306 310 316 319 319 322 321 323
287 281 288 292 293 294 292 293 284 285 273 271 278 277 279 285 286 289 291 291 292 293 294 295 297 298 299 301 301 302 302 303 304 305 305 305 305 307 310 314 316 317 319 320
289 285 283 289 286 287 288 287 287 286 282 275 273 277 284 285 288 288 289 291 291 293 293 293 294 296 298 299 299 300 302 303 304 306 308 309 309 308 309 311 314 315 316 317
290 285 277 282 288 291 290 287 288 280 278 281 280 281 288 288 289 290 291 292 293 293 293 293 293 294 296 297 299 300 300 301 302 304 307 308 309 310 310 310 311 312 312 312
289 284 274 277 282 285 284 286 287 287 286 281 279 280 290 293 292 290 290 291 292 293 294 295 294 294 294 296 298 299 299 299 300 301 302 303 304 306 307 308 309 309 308 307
291 284 280 277 279 283 282 282 284 283 278 278 280 283 286 288 289 290 291 291 291 291 293 294 294 295 295 296 296 297 298 298 298 299 299 299 300 301 303 304 305 305 304 303
286 273 279 282 282 284 283 282 283 281 281 278 280 281 284 287 287 290 293 293 292 293 293 292 293 294 295 295 296 296 296 297 297 297 298 298 298 298 299 299 300 300 299 299
287 274 277 271 282 282 279 282 282 282 282 282 282 281 287 289 288 289 290 291 291 292 293 292 293 294 293 291 291 292 292 293 294 295 294 293 293 295 295 296 296 296 296 295
280 274 268 264 275 272 269 276 280 281 283 282 278 283 287 286 286 287 288 289 290 290 290 292 289 288 288 286 287 287 288 288 288 287 286 285 285 287 289 291 293 293 293 293
275 274 270 264 265 260 275 280 281 281 283 284 285 286 287 287 288 288 289 288 288 290 289 287 285 284 283 282 282 285 283 282 282 281 281 281 281 282 284 286 287 289 290 290
282 276 266 265 257 268 275 278 277 276 277 282 283 285 286 288 287 286 287 289 288 286 285 283 281 280 279 278 279 280 279 279 279 278 279 279 279 280 281 281 282 284 285 286
282 280 278 259 263 261 273 278 280 280 270 282 283 283 283 284 278 281 288 288 286 283 281 279 278 277 276 275 277 277 276 276 275 276 277 277 277 278 278 278 280 280 281 283
266 273 273 268 270 269 279 281 282 269 275 282 283 284 286 284 284 287 288 285 282 280 279 277 275 274 273 274 275 275 274 273 274 275 275 275 275 276 276 276 277 278 279 280
268 264 266 265 264 265 280 280 277 281 282 283 284 285 285 286 286 285 285 283 280 277 276 276 274 273 271 272 273 272 271 272 273 274 273 273 273 274 274 272 274 275 276 276
269 274 269 271 271 280 281 282 283 285 284 283 282 284 284 284 284 283 281 279 277 275 275 274 272 271 269 269 270 270 269 271 272 271 271 271 271 273 273 271 272 274 275 276
277 279 276 277 279 280 283 284 283 283 283 284 282 282 282 282 281 280 280 279 276 274 272 272 271 269 268 268 268 267 268 269 269 267 269 271 271 271 272 272 273 273 272 272
278 278 276 276 280 280 282 283 283 283 283 283 282 280 280 279 278 278 277 274 272 272 270 270 268 267 266 266 265 264 266 267 269 269 269 269 270 270 270 273 271 272 275 274
279 278 275 275 280 280 282 282 281 281 280 278 277 277 276 275 275 275 272 271 270 269 269 268 266 265 263 263 263 264 264 267 267 269 269 269 269 269 271 271 270 276 277 277
Wind_Speed
2 3 6 9 4 2 4 1 2 3 4 2 7 6 13 7 5 10 9 9 9 9 11 8 12 14 12 12 13 16 17 17 11 9 8 8 10 9 9 9 9 10 10 10
3 5 6 5 5 5 4 2 5 5 4 1 5 8 10 7 7 9 11 11 11 8 8 9 8 8 13 15 17 17 17 14 14 11 9 6 7 7 7 8 11 12 12 13
5 4 7 7 4 3 4 4 3 5 4 2 4 7 7 8 4 6 10 11 10 13 14 13 8 8 8 12 15 16 16 16 16 16 7 5 1 4 4 9 10 11 14 13
5 5 3 4 4 6 3 3 3 2 2 4 2 8 5 6 8 5 9 9 12 14 11 10 8 7 8 10 8 10 12 15 15 16 12 14 12 13 11 10 10 10 12 14
6 5 7 6 4 8 5 2 3 2 2 2 1 4 7 3 6 10 10 10 10 10 8 9 9 9 7 5 7 7 7 7 8 12 14 12 13 10 9 7 10 11 10 13
4 2 5 5 5 7 6 5 7 4 3 4 7 6 5 5 9 6 4 6 8 9 7 7 7 6 5 3 3 4 4 7 7 10 15 17 17 14 10 9 8 8 8 7
2 4 2 2 4 2 4 6 2 3 0 7 3 6 7 8 11 5 8 8 8 7 3 4 5 6 6 6 6 5 4 6 5 6 6 11 14 14 15 12 9 10 7 6
6 5 7 6 6 6 6 7 6 8 5 3 1 8 7 6 9 6 2 5 6 7 6 7 7 7 7 8 7 5 4 7 6 5 7 7 7 6 8 9 9 8 9 10
5 5 2 5 5 9 5 9 4 3 3 3 5 7 9 5 5 4 6 6 6 8 8 8 8 7 7 7 6 4 5 6 6 7 7 7 6 7 8 9 7 8 8 8
4 2 1 2 1 2 3 5 2 2 3 4 5 5 6 7 5 5 9 10 11 10 10 9 8 7 5 5 5 5 4 5 5 6 6 6 7 7 7 6 9 9 9 9
3 3 3 3 3 7 3 2 2 2 5 4 2 6 6 4 6 8 8 8 9 10 9 8 7 7 8 6 4 5 5 5 6 5 6 6 6 6 6 6 7 7 7 8
6 2 3 7 1 1 0 3 5 5 3 3 3 10 1 8 6 7 7 8 9 9 9 8 8 7 7 7 7 5 5 5 6 6 5 6 6 6 5 6 7 6 8 7
2 2 2 8 5 4 1 5 2 1 3 6 3 7 5 13 10 5 6 8 7 8 10 9 8 8 8 8 8 8 7 7 6 5 6 6 7 6 6 7 6 6 6 6
5 3 4 3 2 0 3 3 4 3 1 4 5 13 11 12 14 19 18 7 7 8 8 7 8 8 7 8 8 8 8 7 7 7 6 7 6 6 6 6 6 6 5 6
4 3 2 4 4 2 3 4 4 4 6 5 9 13 23 15 12 15 16 12 9 11 8 7 7 7 8 9 10 12 11 10 8 6 7 7 7 6 6 7 7 6 6 6
4 1 3 5 3 4 4 10 9 10 10 10 16 18 23 14 9 9 11 10 11 12 11 12 7 6 5 6 8 10 11 12 11 7 7 9 10 10 9 8 7 7 7 5
3 4 4 5 4 4 7 9 11 7 7 8 11 16 18 14 9 12 8 9 11 15 8 8 10 9 10 10 10 9 9 9 9 10 10 10 10 10 10 10 8 7 7 4
4 4 3 4 4 0 9 5 5 11 11 12 16 18 19 20 15 7 8 8 11 5 6 6 6 7 7 8 10 9 8 9 9 10 11 11 12 11 11 10 8 7 5 4
3 4 2 3 5 6 9 11 6 7 11 5 11 18 19 18 12 11 6 3 1 2 2 3 4 5 6 7 8 8 8 8 8 9 9 10 9 10 10 11 11 8 6 4
3 4 3 3 3 8 13 3 3 3 4 14 9 13 11 9 5 5 1 1 1 1 1 3 4 4 5 7 8 5 6 7 9 10 8 8 8 7 8 9 9 6 5 5
3 0 9 6 6 10 8 10 3 5 9 2 2 2 4 6 6 9 5 4 3 2 2 2 3 4 6 8 7 6 6 7 8 8 8 7 7 6 7 7 6 7 6 5
6 5 6 2 2 10 7 2 7 7 3 5 5 6 8 13 11 7 7 5 0 2 3 4 4 4 6 8 8 6 7 9 7 6 6 6 6 6 6 5 6 7 7 7
3 9 6 11 10 7 6 7 5 4 13 13 10 13 8 10 9 4 4 4 2 4 4 4 4 4 4 7 8 6 7 8 7 6 5 6 7 6 5 5 5 4 6 6
5 5 8 6 11 15 15 10 7 7 13 12 8 9 5 8 6 5 5 3 1 2 3 4 4 4 4 5 7 7 8 8 5 5 6 6 6 7 8 6 5 5 5 5
7 3 6 11 14 12 13 11 10 9 9 9 5 3 4 4 4 4 3 2 2 3 3 3 3 4 4 5 4 4 7 8 6 5 4 5 4 5 5 5 4 5 5 5
7 8 6 10 9 7 13 5 5 7 6 5 5 3 2 3 4 3 3 3 3 3 3 3 3 4 3 4 4 6 6 7 6 5 5 4 3 3 3 3 3 11 10 11
Wind_Direction
192 121 193 195 196 359 105 165 289 278 271 193 237 243 267 282 305 292 283 271 276 253 258 235 218 216 217 214 202 201 196 202 192 197 202 216 222 226 231 234 232 225 218 211
78 231 198 199 231 246 268 211 247 279 293 192 290 267 269 273 242 238 256 267 250 263 269 253 246 211 203 210 211 209 207 194 196 198 203 202 202 226 226 228 236 224 222 221
173 214 196 188 185 192 239 188 205 228 334 305 331 272 238 270 238 251 258 251 259 240 253 259 243 228 218 218 216 217 211 199 197 202 189 194 151 231 216 224 230 223 221 215
232 260 92 146 218 151 252 203 211 258 70 235 50 286 294 256 269 243 261 246 250 252 246 251 241 237 225 231 230 228 221 212 203 197 196 201 207 218 222 221 219 220 210 218
230 202 204 195 211 165 219 166 107 163 172 359 294 282 261 267 286 266 264 263 252 253 259 260 254 254 271 259 248 227 215 214 221 208 210 206 216 221 228 217 219 214 212 211
223 312 148 204 186 181 159 85 39 47 84 283 191 197 210 214 223 251 289 263 300 311 279 271 277 268 282 292 309 282 246 237 218 208 209 214 219 222 219 218 213 218 217 211
95 260 304 139 137 60 125 114 32 358 333 233 263 201 268 287 267 241 275 318 315 310 332 323 331 336 321 311 309 304 285 274 256 251 247 235 232 231 231 224 219 221 213 204
167 307 178 182 192 177 186 166 171 201 198 256 116 231 250 244 280 321 333 295 336 348 328 323 327 326 315 308 306 297 299 289 298 283 252 247 245 243 242 236 230 227 220 218
166 256 230 207 164 155 198 215 162 63 38 60 238 293 296 317 294 39 28 32 10 353 355 344 340 334 318 315 308 301 297 288 297 289 288 276 250 238 237 236 228 234 228 225
194 239 251 253 97 295 173 158 165 120 208 238 268 269 237 294 42 29 19 16 4 1 348 342 338 319 306 308 317 332 320 297 297 298 282 273 272 259 246 234 228 221 220 217
180 90 297 98 200 199 155 191 200 164 167 195 259 260 225 248 95 48 36 26 358 343 342 325 319 320 317 304 312 311 315 309 306 303 296 297 290 283 271 248 246 237 235 221
200 139 196 244 320 157 126 251 183 146 228 245 256 257 354 106 54 54 23 348 330 321 316 316 321 324 323 316 307 274 274 283 279 288 299 297 300 298 294 282 268 245 233 220
126 108 56 342 349 0 149 39 7 160 153 212 243 263 25 354 351 35 330 307 299 304 315 323 336 333 321 314 304 299 290 277 277 265 266 280 288 298 290 287 284 286 276 256
97 135 155 176 147 32 89 35 30 31 246 341 249 297 310 320 320 320 316 284 281 280 290 307 316 313 312 311 301 283 291 295 290 278 262 272 285 283 283 286 283 277 259 259
95 156 152 206 178 145 167 189 201 218 233 251 281 285 285 275 287 286 288 294 302 301 300 274 274 296 313 322 338 347 345 342 318 298 310 317 313 309 300 298 294 290 272 263
28 316 69 344 230 201 226 230 232 240 256 250 258 273 272 293 263 274 267 284 296 297 298 309 341 8 40 11 347 343 346 347 350 4 5 2 2 348 337 322 306 294 282 273
96 112 63 291 355 46 322 237 210 217 212 215 244 255 288 284 267 271 269 282 282 290 308 344 351 355 359 358 345 345 347 347 1 2 2 4 358 347 340 331 325 310 293 285
132 110 96 217 29 225 243 259 224 221 242 234 252 265 268 274 277 284 258 245 274 343 355 348 347 341 352 348 344 337 360 8 7 5 359 358 355 346 340 335 331 321 317 302
150 108 63 167 187 305 295 247 192 180 272 269 246 259 267 281 312 292 269 34 57 330 355 342 337 332 338 350 338 344 0 2 10 7 356 351 350 346 345 347 338 332 327 328
119 118 187 94 176 222 246 0 159 88 283 250 249 264 281 306 312 290 237 182 243 82 341 328 336 339 344 344 335 0 11 9 359 349 347 349 345 350 352 342 341 330 332 349
60 116 225 236 250 271 265 270 136 116 268 42 181 240 271 280 225 266 242 202 144 119 335 353 6 12 1 344 334 4 4 14 348 343 346 350 352 353 357 347 350 347 353 32
165 148 209 149 220 279 222 48 175 226 281 287 284 243 261 275 283 278 263 250 247 347 356 14 16 26 10 358 353 6 358 343 342 347 350 347 346 356 3 12 13 11 19 33
282 189 197 183 213 235 219 224 259 261 282 285 274 286 257 266 278 293 304 265 286 358 358 21 22 17 35 9 9 2 346 338 342 359 349 354 348 354 359 12 28 39 36 41
257 200 235 291 244 261 264 272 272 266 274 280 256 257 228 245 260 264 274 218 186 21 8 9 8 31 26 18 18 351 340 336 345 4 356 353 5 1 2 9 12 40 51 58
200 182 234 264 280 279 275 267 275 286 278 270 268 300 287 293 312 317 335 51 42 26 22 27 17 45 33 9 5 346 345 350 353 357 358 4 2 18 14 7 6 11 26 69
180 219 192 250 257 256 283 299 334 304 310 352 342 327 47 5 346 1 55 27 24 36 27 48 46 57 23 12 0 353 349 356 356 354 357 357 349 352 23 21 10 24 44 47